Location: Mentone
(34.5413°N, 85.5351°W)
Time: 02:34:04
(UTC-05:00)

Cosmos 2150 Rocket - Visible Passes

Search period start: 01 September 2014 00:00
Search period end: 11 September 2014 00:00
Orbit: 750 x 809 km, 74.0° (Epoch: 31 August)

Date Brightness Start Highest point End Pass type
(mag) Time Alt. Az. Time Alt. Az. Time Alt. Az.
01 Sep 6.8 02:03:32 13° NE 02:03:32 13° NE 02:04:12 10° NE visible
01 Sep 5.4 03:44:03 30° NNW 03:44:03 30° NNW 03:47:12 10° N visible
02 Sep 5.7 03:11:25 28° N 03:11:25 28° N 03:13:56 10° N visible
03 Sep 6.3 02:38:45 21° NNE 02:38:45 21° NNE 02:40:26 10° NNE visible
03 Sep 6.3 04:19:16 11° NW 04:19:16 11° NW 04:19:52 10° NW visible
04 Sep 6.8 02:06:03 14° NNE 02:06:03 14° NNE 02:06:44 10° NNE visible
04 Sep 6.2 03:46:34 14° NNW 03:46:34 14° NNW 03:47:53 10° NNW visible
05 Sep 6.3 03:13:50 16° NNW 03:13:50 16° NNW 03:15:04 10° N visible
06 Sep 6.6 02:41:05 15° N 02:41:05 15° N 02:41:56 10° N visible
07 Sep 7.0 02:08:19 11° NNE 02:08:19 11° NNE 02:08:33 10° NNE visible
